Regional Weather Roundup
Issued by NWS Kansas City/Pleasant Hill, MO

Home | Current Version | Previous Version | Graphics & Text | Print | Product List | Glossary Off
Versions: 1 2 3 4 5 6 7 8 9 10 11 12 13 14 15 16 17 18 19 20 21 22 23 24 25 26 27 28 29 30 31 32 33 34 35 36 37 38 39 40 41 42 43 44 45 46 47 48 49 50

000
ASUS43 KEAX 121504
RWREAX

WEATHER ROUNDUP FOR EASTERN KANSAS AND NORTHWEST MISSOURI
NATIONAL WEATHER SERVICE KANSAS CITY/PLEASANT HILL MO
1000 AM CDT SAT JUL 12 2014

KSZ040-057-103>105-MOZ028-029-037-043-121600-
...KANSAS CITY METROPOLITAN AREA...

CITY           SKY/WX    TMP DP  RH WIND       PRES   REMARKS
K.C. INTL      PTSUNNY   81  70  69 SW10      30.05S
K.C. DOWNTOWN  MOSUNNY   85  67  54 SW13G20   30.04S
LEES SUMMIT    SUNNY     82  68  62 SW10      30.07F
OLATHE - IXD   SUNNY     84  68  58 SW16G23   30.07S
OLATHE - OJC   SUNNY     83  69  62 SW8       30.07S
LAWRENCE       MOSUNNY   84  67  56 SW10G20   30.04F

$$

MOZ001>008-011>017-020>025-030>033-038>040-044>046-053-054-121600-
...NORTHERN AND CENTRAL MISSOURI...

CITY           SKY/WX    TMP DP  RH WIND       PRES   REMARKS
ST. JOSEPH     PTSUNNY   82  70  66 CALM      30.04S
MOSBY          MOSUNNY   82  66  57 SW9       30.05S
WHITEMAN AFB   NOT AVBL
CLINTON        MOSUNNY   82  72  69 SW10      30.10S
SEDALIA        MOSUNNY   84  71  65 SW13      30.10S
WARSAW         NOT AVBL
MARSHALL         N/A     84  72  65 SW9G17    30.07F HAZE
CHILLICOTHE      N/A     82  69  64 SW5       30.05F
KIRKSVILLE     CLOUDY    81  73  76 SW7       30.07S

$$

MOZ041-047>049-056>058-063>065-088>090-097-121600-
...EASTERN AND SOUTHERN MISSOURI...

CITY           SKY/WX    TMP DP  RH WIND       PRES   REMARKS
ST. LOUIS INTL CLOUDY    84  73  69 SW8       30.10F HX  90
SPIRIT OF STL  CLOUDY    81  73  76 SW8       30.08F
COLUMBIA       MOSUNNY   84  71  65 SW13      30.10S
JEFFERSON CITY MOSUNNY   84  70  62 SW6       30.09F
HANNIBAL       PTSUNNY   84  70  61 SW10      30.07F
ROLLA          MOSUNNY   83  70  64 SW12      30.13F
LEBANON        SUNNY     84  66  54 W9        30.16F
OSAGE BEACH    MOSUNNY   82  70  65 SW6       30.13S
SPRINGFIELD    SUNNY     83  68  60 SW15      30.15F
BRANSON        SUNNY     86  70  58 SW5       30.19F HX  90
NEVADA         SUNNY     81  70  69 SW8       30.12S
JOPLIN         SUNNY     85  67  54 SW14      30.14S
WEST PLAINS    SUNNY     83  71  67 W8        30.19F

$$

IAZ060-094-KSZ022-034>040-054-083-096-NEZ052-066-093-121600-
...KANSAS...SOUTHEAST NEBRASKA AND IOWA...

CITY           SKY/WX    TMP DP  RH WIND       PRES   REMARKS
TOPEKA         MOSUNNY   83  67  58 S8        30.03F
MANHATTAN      SUNNY     87  65  47 SW13      30.02S
EMPORIA        SUNNY     84  65  52 SW14G21   30.07S
CHANUTE        SUNNY     83  66  56 SW15      30.10S
WICHITA        MOSUNNY   83  65  54 SW15      30.08F
OMAHA          CLOUDY    77  70  79 SE10      29.97F
LINCOLN        MOSUNNY   81  68  64 S10       29.98F
FALLS CITY     PTSUNNY   82  70  66 SE7       30.01F
LAMONI         CLOUDY    78  71  79 SE8       30.03F
DES MOINES     CLOUDY    77  72  84 S9        30.01F

$$




USA.gov is the U.S. government's official web portal to all federal, state and local government web resources and services.